Year,Month,Day,Hour,Minute,Value (Times are PST for temperature in C)
2006,08,15,00,00,14.60
2006,08,15,00,01,14.60
2006,08,15,00,02,14.60
2006,08,15,00,03,14.70
2006,08,15,00,04,14.70
2006,08,15,00,05,14.70
2006,08,15,00,06,14.70
2006,08,15,00,07,14.60
2006,08,15,00,08,14.60
2006,08,15,00,09,14.60
2006,08,15,00,10,14.60
2006,08,15,00,11,14.60
2006,08,15,00,12,14.60
2006,08,15,00,13,14.50
2006,08,15,00,14,14.50
2006,08,15,00,15,14.50
2006,08,15,00,16,14.50
2006,08,15,00,17,14.40
2006,08,15,00,18,14.40
2006,08,15,00,19,14.40
2006,08,15,00,20,14.40
2006,08,15,00,21,14.30
2006,08,15,00,22,14.30
2006,08,15,00,23,14.30
2006,08,15,00,24,14.30
2006,08,15,00,25,14.20
2006,08,15,00,26,14.20
2006,08,15,00,27,14.20
2006,08,15,00,28,14.20
2006,08,15,00,29,14.20
2006,08,15,00,30,14.20
2006,08,15,00,31,14.20
2006,08,15,00,32,14.20
2006,08,15,00,33,14.20
2006,08,15,00,34,14.20
2006,08,15,00,35,14.20
2006,08,15,00,36,14.20
2006,08,15,00,37,14.20
2006,08,15,00,38,14.20
2006,08,15,00,39,14.20
2006,08,15,00,40,14.20
2006,08,15,00,41,14.20
2006,08,15,00,42,14.20
2006,08,15,00,43,14.20
2006,08,15,00,44,14.20
2006,08,15,00,45,14.20
2006,08,15,00,46,14.20
2006,08,15,00,47,14.20
2006,08,15,00,48,14.20
2006,08,15,00,49,14.20
2006,08,15,00,50,14.20
2006,08,15,00,51,14.20
2006,08,15,00,52,14.20
2006,08,15,00,53,14.10
2006,08,15,00,54,14.10
2006,08,15,00,55,14.10
2006,08,15,00,56,14.10
2006,08,15,00,57,14.10
2006,08,15,00,58,14.10
2006,08,15,00,59,14.20
2006,08,15,01,00,14.10
2006,08,15,01,01,14.10
2006,08,15,01,02,14.10
2006,08,15,01,03,14.10
2006,08,15,01,04,14.10
2006,08,15,01,05,14.10
2006,08,15,01,06,14.10
2006,08,15,01,07,14.10
2006,08,15,01,08,14.10
2006,08,15,01,09,14.00
2006,08,15,01,10,14.00
2006,08,15,01,11,14.00
2006,08,15,01,12,14.00
2006,08,15,01,13,14.00
2006,08,15,01,14,14.00
2006,08,15,01,15,13.90
2006,08,15,01,16,13.90
2006,08,15,01,17,13.90
2006,08,15,01,18,13.90
2006,08,15,01,19,13.90
2006,08,15,01,20,13.90
2006,08,15,01,21,13.80
2006,08,15,01,22,13.80
2006,08,15,01,23,13.90
2006,08,15,01,24,13.90
2006,08,15,01,25,13.90
2006,08,15,01,26,13.90
2006,08,15,01,27,13.90
2006,08,15,01,28,13.90
2006,08,15,01,29,13.90
2006,08,15,01,30,13.90
2006,08,15,01,31,13.90
2006,08,15,01,32,13.90
2006,08,15,01,33,13.90
2006,08,15,01,34,13.90
2006,08,15,01,35,13.90
2006,08,15,01,36,13.90
2006,08,15,01,37,13.90
2006,08,15,01,38,13.90
2006,08,15,01,39,13.90
2006,08,15,01,40,13.90
2006,08,15,01,41,13.90
2006,08,15,01,42,13.90
2006,08,15,01,43,13.90
2006,08,15,01,44,13.90
2006,08,15,01,45,13.90
2006,08,15,01,46,13.90
2006,08,15,01,47,13.90
2006,08,15,01,48,14.00
2006,08,15,01,49,14.00
2006,08,15,01,50,14.00
2006,08,15,01,51,14.10
2006,08,15,01,52,14.10
2006,08,15,01,53,14.10
2006,08,15,01,54,14.10
2006,08,15,01,55,14.10
2006,08,15,01,56,14.10
2006,08,15,01,57,14.10
2006,08,15,01,58,14.10
2006,08,15,01,59,14.10
2006,08,15,02,00,14.10
2006,08,15,02,01,14.10
2006,08,15,02,02,14.10
2006,08,15,02,03,14.10
2006,08,15,02,04,14.10
2006,08,15,02,05,14.10
2006,08,15,02,06,14.00
2006,08,15,02,07,14.00
2006,08,15,02,08,14.00
2006,08,15,02,09,14.00
2006,08,15,02,10,14.00
2006,08,15,02,11,14.00
2006,08,15,02,12,14.00
2006,08,15,02,13,13.90
2006,08,15,02,14,13.90
2006,08,15,02,15,13.90
2006,08,15,02,16,13.90
2006,08,15,02,17,13.80
2006,08,15,02,18,13.80
2006,08,15,02,19,13.80
2006,08,15,02,20,13.80
2006,08,15,02,21,13.80
2006,08,15,02,22,13.70
2006,08,15,02,23,13.70
2006,08,15,02,24,13.70
2006,08,15,02,25,13.70
2006,08,15,02,26,13.70
2006,08,15,02,27,13.70
2006,08,15,02,28,13.60
2006,08,15,02,29,13.60
2006,08,15,02,30,13.60
2006,08,15,02,31,13.60
2006,08,15,02,32,13.50
2006,08,15,02,33,13.50
2006,08,15,02,34,13.50
2006,08,15,02,35,13.50
2006,08,15,02,36,13.50
2006,08,15,02,37,13.50
2006,08,15,02,38,13.40
2006,08,15,02,39,13.40
2006,08,15,02,40,13.40
2006,08,15,02,41,13.40
2006,08,15,02,42,13.40
2006,08,15,02,43,13.40
2006,08,15,02,44,13.30
2006,08,15,02,45,13.30
2006,08,15,02,46,13.30
2006,08,15,02,47,13.30
2006,08,15,02,48,13.30
2006,08,15,02,49,13.30
2006,08,15,02,50,13.30
2006,08,15,02,51,13.30
2006,08,15,02,52,13.30
2006,08,15,02,53,13.30
2006,08,15,02,54,13.30
2006,08,15,02,55,13.30
2006,08,15,02,56,13.30
2006,08,15,02,57,13.30
2006,08,15,02,58,13.30
2006,08,15,02,59,13.30
2006,08,15,03,00,13.30
2006,08,15,03,01,13.30
2006,08,15,03,02,13.30
2006,08,15,03,03,13.30
2006,08,15,03,04,13.30
2006,08,15,03,05,13.30
2006,08,15,03,06,13.30
2006,08,15,03,07,13.30
2006,08,15,03,08,13.30
2006,08,15,03,09,13.30
2006,08,15,03,10,13.30
2006,08,15,03,11,13.30
2006,08,15,03,12,13.30
2006,08,15,03,13,13.30
2006,08,15,03,14,13.30
2006,08,15,03,15,13.30
2006,08,15,03,16,13.30
2006,08,15,03,17,13.30
2006,08,15,03,18,13.30
2006,08,15,03,19,13.30
2006,08,15,03,20,13.30
2006,08,15,03,21,13.30
2006,08,15,03,22,13.30
2006,08,15,03,23,13.30
2006,08,15,03,24,13.30
2006,08,15,03,25,13.30
2006,08,15,03,26,13.30
2006,08,15,03,27,13.30
2006,08,15,03,28,13.30
2006,08,15,03,29,13.30
2006,08,15,03,30,13.30
2006,08,15,03,31,13.30
2006,08,15,03,32,13.30
2006,08,15,03,33,13.30
2006,08,15,03,34,13.30
2006,08,15,03,35,13.30
2006,08,15,03,36,13.30
2006,08,15,03,37,13.30
2006,08,15,03,38,13.30
2006,08,15,03,39,13.30
2006,08,15,03,40,13.30
2006,08,15,03,41,13.30
2006,08,15,03,42,13.30
2006,08,15,03,43,13.30
2006,08,15,03,44,13.30
2006,08,15,03,45,13.30
2006,08,15,03,46,13.30
2006,08,15,03,47,13.30
2006,08,15,03,48,13.30
2006,08,15,03,49,13.30
2006,08,15,03,50,13.30
2006,08,15,03,51,13.30
2006,08,15,03,52,13.30
2006,08,15,03,53,13.30
2006,08,15,03,54,13.30
2006,08,15,03,55,13.30
2006,08,15,03,56,13.30
2006,08,15,03,57,13.30
2006,08,15,03,58,13.30
2006,08,15,03,59,13.30
2006,08,15,04,00,13.30
2006,08,15,04,01,13.30
2006,08,15,04,02,13.30
2006,08,15,04,03,13.30
2006,08,15,04,04,13.30
2006,08,15,04,05,13.30
2006,08,15,04,06,13.30
2006,08,15,04,07,13.30
2006,08,15,04,08,13.30
2006,08,15,04,09,13.30
2006,08,15,04,10,13.30
2006,08,15,04,11,13.30
2006,08,15,04,12,13.30
2006,08,15,04,13,13.30
2006,08,15,04,14,13.30
2006,08,15,04,15,13.30
2006,08,15,04,16,13.30
2006,08,15,04,17,13.30
2006,08,15,04,18,13.30
2006,08,15,04,19,13.30
2006,08,15,04,20,13.30
2006,08,15,04,21,13.30
2006,08,15,04,22,13.30
2006,08,15,04,23,13.30
2006,08,15,04,24,13.30
2006,08,15,04,25,13.20
2006,08,15,04,26,13.20
2006,08,15,04,27,13.20
2006,08,15,04,28,13.10
2006,08,15,04,29,13.10
2006,08,15,04,30,13.00
2006,08,15,04,31,13.00
2006,08,15,04,32,12.90
2006,08,15,04,33,12.90
2006,08,15,04,34,12.80
2006,08,15,04,35,12.80
2006,08,15,04,36,12.80
2006,08,15,04,37,12.80
2006,08,15,04,38,12.70
2006,08,15,04,39,12.70
2006,08,15,04,40,12.70
2006,08,15,04,41,12.60
2006,08,15,04,42,12.60
2006,08,15,04,43,12.60
2006,08,15,04,44,12.50
2006,08,15,04,45,12.50
2006,08,15,04,46,12.50
2006,08,15,04,47,12.40
2006,08,15,04,48,12.40
2006,08,15,04,49,12.40
2006,08,15,04,50,12.30
2006,08,15,04,51,12.30
2006,08,15,04,52,12.30
2006,08,15,04,53,12.30
2006,08,15,04,54,12.30
2006,08,15,04,55,12.30
2006,08,15,04,56,12.30
2006,08,15,04,57,12.20
2006,08,15,04,58,12.20
2006,08,15,04,59,12.20
2006,08,15,05,00,12.20
2006,08,15,05,01,12.20
2006,08,15,05,02,12.20
2006,08,15,05,03,12.20
2006,08,15,05,04,12.20
2006,08,15,05,05,12.20
2006,08,15,05,06,12.20
2006,08,15,05,07,12.20
2006,08,15,05,08,12.20
2006,08,15,05,09,12.20
2006,08,15,05,10,12.20
2006,08,15,05,11,12.20
2006,08,15,05,12,12.20
2006,08,15,05,13,12.20
2006,08,15,05,14,12.20
2006,08,15,05,15,12.20
2006,08,15,05,16,12.20
2006,08,15,05,17,12.30
2006,08,15,05,18,12.30
2006,08,15,05,19,12.30
2006,08,15,05,20,12.30
2006,08,15,05,21,12.30
2006,08,15,05,22,12.30
2006,08,15,05,23,12.30
2006,08,15,05,24,12.30
2006,08,15,05,25,12.30
2006,08,15,05,26,12.30
2006,08,15,05,27,12.30
2006,08,15,05,28,12.30
2006,08,15,05,29,12.30
2006,08,15,05,30,12.30
2006,08,15,05,31,12.30
2006,08,15,05,32,12.30
2006,08,15,05,33,12.30
2006,08,15,05,34,12.30
2006,08,15,05,35,12.30
2006,08,15,05,36,12.30
2006,08,15,05,37,12.30
2006,08,15,05,38,12.30
2006,08,15,05,39,12.30
2006,08,15,05,40,12.30
2006,08,15,05,41,12.30
2006,08,15,05,42,12.30
2006,08,15,05,43,12.40
2006,08,15,05,44,12.40
2006,08,15,05,45,12.40
2006,08,15,05,46,12.40
2006,08,15,05,47,12.40
2006,08,15,05,48,12.40
2006,08,15,05,49,12.40
2006,08,15,05,50,12.40
2006,08,15,05,51,12.40
2006,08,15,05,52,12.40
2006,08,15,05,53,12.30
2006,08,15,05,54,12.30
2006,08,15,05,55,12.30
2006,08,15,05,56,12.30
2006,08,15,05,57,12.30
2006,08,15,05,58,12.30
2006,08,15,05,59,12.30
2006,08,15,06,00,12.30
2006,08,15,06,01,12.30
2006,08,15,06,02,12.30
2006,08,15,06,03,12.30
2006,08,15,06,04,12.30
2006,08,15,06,05,12.30
2006,08,15,06,06,12.30
2006,08,15,06,07,12.30
2006,08,15,06,08,12.20
2006,08,15,06,09,12.20
2006,08,15,06,10,12.20
2006,08,15,06,11,12.20
2006,08,15,06,12,12.20
2006,08,15,06,13,12.20
2006,08,15,06,14,12.20
2006,08,15,06,15,12.10
2006,08,15,06,16,12.10
2006,08,15,06,17,12.10
2006,08,15,06,18,12.10
2006,08,15,06,19,12.10
2006,08,15,06,20,12.10
2006,08,15,06,21,12.10
2006,08,15,06,22,12.10
2006,08,15,06,23,12.00
2006,08,15,06,24,12.00
2006,08,15,06,25,12.00
2006,08,15,06,26,12.00
2006,08,15,06,27,12.00
2006,08,15,06,28,12.00
2006,08,15,06,29,12.00
2006,08,15,06,30,12.00
2006,08,15,06,31,12.00
2006,08,15,06,32,11.90
2006,08,15,06,33,11.90
2006,08,15,06,34,11.90
2006,08,15,06,35,11.90
2006,08,15,06,36,11.90
2006,08,15,06,37,11.90
2006,08,15,06,38,11.90
2006,08,15,06,39,11.80
2006,08,15,06,40,11.80
2006,08,15,06,41,11.80
2006,08,15,06,42,11.80
2006,08,15,06,43,11.80
2006,08,15,06,44,11.70
2006,08,15,06,45,11.70
2006,08,15,06,46,11.70
2006,08,15,06,47,11.60
2006,08,15,06,48,11.60
2006,08,15,06,49,11.60
2006,08,15,06,50,11.60
2006,08,15,06,51,11.60
2006,08,15,06,52,11.60
2006,08,15,06,53,11.60
2006,08,15,06,54,11.60
2006,08,15,06,55,11.60
2006,08,15,06,56,11.50
2006,08,15,06,57,11.40
2006,08,15,06,58,11.40
2006,08,15,06,59,11.40
2006,08,15,07,00,11.40
2006,08,15,07,01,11.40
2006,08,15,07,02,11.40
2006,08,15,07,03,11.40
2006,08,15,07,04,11.40
2006,08,15,07,05,11.40
2006,08,15,07,06,11.40
2006,08,15,07,07,11.40
2006,08,15,07,08,11.40
2006,08,15,07,09,11.40
2006,08,15,07,10,11.40
2006,08,15,07,11,11.50
2006,08,15,07,12,11.40
2006,08,15,07,13,11.40
2006,08,15,07,14,11.40
2006,08,15,07,15,11.40
2006,08,15,07,16,11.40
2006,08,15,07,17,11.40
2006,08,15,07,18,11.40
2006,08,15,07,19,11.40
2006,08,15,07,20,11.40
2006,08,15,07,21,11.40
2006,08,15,07,22,11.40
2006,08,15,07,23,11.40
2006,08,15,07,24,11.40
2006,08,15,07,25,11.50
2006,08,15,07,26,11.60
2006,08,15,07,27,11.60
2006,08,15,07,28,11.60
2006,08,15,07,29,11.60
2006,08,15,07,30,11.60
2006,08,15,07,31,11.60
2006,08,15,07,32,11.70
2006,08,15,07,33,11.70
2006,08,15,07,34,11.70
2006,08,15,07,35,11.80
2006,08,15,07,36,11.80
2006,08,15,07,37,11.80
2006,08,15,07,38,11.80
2006,08,15,07,39,11.80
2006,08,15,07,40,11.80
2006,08,15,07,41,11.80
2006,08,15,07,42,11.80
2006,08,15,07,43,11.80
2006,08,15,07,44,11.80
2006,08,15,07,45,11.80
2006,08,15,07,46,11.80
2006,08,15,07,47,11.80
2006,08,15,07,48,11.80
2006,08,15,07,49,11.80
2006,08,15,07,50,11.80
2006,08,15,07,51,11.80
2006,08,15,07,52,11.90
2006,08,15,07,53,11.90
2006,08,15,07,54,11.90
2006,08,15,07,55,11.90
2006,08,15,07,56,11.80
2006,08,15,07,57,11.80
2006,08,15,07,58,11.80
2006,08,15,07,59,11.80
2006,08,15,08,00,11.80
2006,08,15,08,01,11.80
2006,08,15,08,02,11.80
2006,08,15,08,03,11.80
2006,08,15,08,04,11.80
2006,08,15,08,05,11.80
2006,08,15,08,06,11.80
2006,08,15,08,07,11.80
2006,08,15,08,08,11.70
2006,08,15,08,09,11.70
2006,08,15,08,10,11.70
2006,08,15,08,11,11.70
2006,08,15,08,12,11.70
2006,08,15,08,13,11.70
2006,08,15,08,14,11.70
2006,08,15,08,15,11.70
2006,08,15,08,16,11.70
2006,08,15,08,17,11.70
2006,08,15,08,18,11.80
2006,08,15,08,19,11.80
2006,08,15,08,20,11.80
2006,08,15,08,21,11.80
2006,08,15,08,22,11.70
2006,08,15,08,23,11.70
2006,08,15,08,24,11.70
2006,08,15,08,25,11.70
2006,08,15,08,26,11.70
2006,08,15,08,27,11.70
2006,08,15,08,28,11.80
2006,08,15,08,29,11.80
2006,08,15,08,30,11.80
2006,08,15,08,31,11.80
2006,08,15,08,32,11.80
2006,08,15,08,33,11.70
2006,08,15,08,34,11.70
2006,08,15,08,35,11.70
2006,08,15,08,36,11.70
2006,08,15,08,37,11.70
2006,08,15,08,38,11.70
2006,08,15,08,39,11.70
2006,08,15,08,40,11.70
2006,08,15,08,41,11.70
2006,08,15,08,42,11.70
2006,08,15,08,43,11.70
2006,08,15,08,44,11.70
2006,08,15,08,45,11.70
2006,08,15,08,46,11.70
2006,08,15,08,47,11.70
2006,08,15,08,48,11.70
2006,08,15,08,49,11.70
2006,08,15,08,50,11.70
2006,08,15,08,51,11.70
2006,08,15,08,52,11.70
2006,08,15,08,53,11.70
2006,08,15,08,54,11.70
2006,08,15,08,55,11.70
2006,08,15,08,56,11.70
2006,08,15,08,57,11.70
2006,08,15,08,58,11.70
2006,08,15,08,59,11.70
2006,08,15,09,00,11.70
2006,08,15,09,01,11.70
2006,08,15,09,02,11.80
2006,08,15,09,03,11.80
2006,08,15,09,04,11.80
2006,08,15,09,05,11.80
2006,08,15,09,06,11.80
2006,08,15,09,07,11.80
2006,08,15,09,08,11.80
2006,08,15,09,09,11.80
2006,08,15,09,10,11.80
2006,08,15,09,11,11.80
2006,08,15,09,12,11.80
2006,08,15,09,13,11.80
2006,08,15,09,14,11.80
2006,08,15,09,15,11.90
2006,08,15,09,16,11.90
2006,08,15,09,17,11.90
2006,08,15,09,18,12.00
2006,08,15,09,19,12.00
2006,08,15,09,20,12.00
2006,08,15,09,21,12.10
2006,08,15,09,22,12.10
2006,08,15,09,23,12.10
2006,08,15,09,24,12.00
2006,08,15,09,25,12.00
2006,08,15,09,26,11.90
2006,08,15,09,27,11.80
2006,08,15,09,28,11.80
2006,08,15,09,29,11.80
2006,08,15,09,30,11.80
2006,08,15,09,31,11.80
2006,08,15,09,32,11.90
2006,08,15,09,33,11.90
2006,08,15,09,34,12.00
2006,08,15,09,35,12.00
2006,08,15,09,36,12.00
2006,08,15,09,37,12.10
2006,08,15,09,38,12.10
2006,08,15,09,39,12.20
2006,08,15,09,40,12.20
2006,08,15,09,41,12.30
2006,08,15,09,42,12.30
2006,08,15,09,43,12.30
2006,08,15,09,44,12.30
2006,08,15,09,45,12.40
2006,08,15,09,46,12.40
2006,08,15,09,47,12.50
2006,08,15,09,48,12.50
2006,08,15,09,49,12.60
2006,08,15,09,50,12.60
2006,08,15,09,51,12.70
2006,08,15,09,52,12.70
2006,08,15,09,53,12.70
2006,08,15,09,54,12.70
2006,08,15,09,55,12.70
2006,08,15,09,56,12.80
2006,08,15,09,57,12.70
2006,08,15,09,58,12.70
2006,08,15,09,59,12.70
2006,08,15,10,00,12.70
2006,08,15,10,01,12.70
2006,08,15,10,02,12.60
2006,08,15,10,03,12.60
2006,08,15,10,04,12.50
2006,08,15,10,05,12.50
2006,08,15,10,06,12.50
2006,08,15,10,07,12.50
2006,08,15,10,08,12.50
2006,08,15,10,09,12.50
2006,08,15,10,10,12.50
2006,08,15,10,11,12.60
2006,08,15,10,12,12.60
2006,08,15,10,13,12.60
2006,08,15,10,14,12.50
2006,08,15,10,15,12.50
2006,08,15,10,16,12.50
2006,08,15,10,17,12.50
2006,08,15,10,18,12.50
2006,08,15,10,19,12.50
2006,08,15,10,20,12.60
2006,08,15,10,21,12.60
2006,08,15,10,22,12.70
2006,08,15,10,23,12.80
2006,08,15,10,24,12.80
2006,08,15,10,25,12.80
2006,08,15,10,26,12.80
2006,08,15,10,27,13.00
2006,08,15,10,28,13.10
2006,08,15,10,29,13.20
2006,08,15,10,30,13.20
2006,08,15,10,31,13.30
2006,08,15,10,32,13.30
2006,08,15,10,33,13.40
2006,08,15,10,34,13.50
2006,08,15,10,35,13.50
2006,08,15,10,36,13.40
2006,08,15,10,37,13.40
2006,08,15,10,38,13.40
2006,08,15,10,39,13.40
2006,08,15,10,40,13.40
2006,08,15,10,41,13.40
2006,08,15,10,42,13.40
2006,08,15,10,43,13.40
2006,08,15,10,44,13.40
2006,08,15,10,45,13.40
2006,08,15,10,46,13.40
2006,08,15,10,47,13.50
2006,08,15,10,48,13.50
2006,08,15,10,49,13.60
2006,08,15,10,50,13.70
2006,08,15,10,51,13.70
2006,08,15,10,52,13.80
2006,08,15,10,53,13.80
2006,08,15,10,54,13.80
2006,08,15,10,55,13.90
2006,08,15,10,56,13.90
2006,08,15,10,57,13.90
2006,08,15,10,58,13.80
2006,08,15,10,59,13.70
2006,08,15,11,00,13.70
2006,08,15,11,01,13.70
2006,08,15,11,02,13.70
2006,08,15,11,03,13.70
2006,08,15,11,04,13.70
2006,08,15,11,05,13.80
2006,08,15,11,06,13.80
2006,08,15,11,07,13.80
2006,08,15,11,08,13.90
2006,08,15,11,09,13.90
2006,08,15,11,10,14.00
2006,08,15,11,11,14.00
2006,08,15,11,12,14.20
2006,08,15,11,13,14.20
2006,08,15,11,14,14.20
2006,08,15,11,15,14.20
2006,08,15,11,16,14.20
2006,08,15,11,17,14.20
2006,08,15,11,18,14.20
2006,08,15,11,19,14.20
2006,08,15,11,20,14.20
2006,08,15,11,21,14.20
2006,08,15,11,22,14.20
2006,08,15,11,23,14.30
2006,08,15,11,24,14.30
2006,08,15,11,25,14.30
2006,08,15,11,26,14.40
2006,08,15,11,27,14.40
2006,08,15,11,28,14.30
2006,08,15,11,29,14.30
2006,08,15,11,30,14.30
2006,08,15,11,31,14.30
2006,08,15,11,32,14.40
2006,08,15,11,33,14.40
2006,08,15,11,34,14.50
2006,08,15,11,35,14.60
2006,08,15,11,36,14.60
2006,08,15,11,37,14.60
2006,08,15,11,38,14.60
2006,08,15,11,39,14.60
2006,08,15,11,40,14.70
2006,08,15,11,41,14.70
2006,08,15,11,42,14.80
2006,08,15,11,43,14.70
2006,08,15,11,44,14.70
2006,08,15,11,45,14.70
2006,08,15,11,46,14.70
2006,08,15,11,47,14.80
2006,08,15,11,48,14.80
2006,08,15,11,49,14.80
2006,08,15,11,50,14.70
2006,08,15,11,51,14.70
2006,08,15,11,52,14.70
2006,08,15,11,53,14.80
2006,08,15,11,54,14.80
2006,08,15,11,55,14.80
2006,08,15,11,56,14.80
2006,08,15,11,57,14.90
2006,08,15,11,58,14.90
2006,08,15,11,59,14.90
2006,08,15,12,00,14.90
2006,08,15,12,01,14.90
2006,08,15,12,02,15.00
2006,08,15,12,03,15.10
2006,08,15,12,04,15.20
2006,08,15,12,05,15.30
2006,08,15,12,06,15.40
2006,08,15,12,07,15.50
2006,08,15,12,08,15.50
2006,08,15,12,09,15.50
2006,08,15,12,10,15.50
2006,08,15,12,11,15.50
2006,08,15,12,12,15.50
2006,08,15,12,13,15.50
2006,08,15,12,14,15.50
2006,08,15,12,15,15.50
2006,08,15,12,16,15.50
2006,08,15,12,17,15.60
2006,08,15,12,18,15.70
2006,08,15,12,19,15.80
2006,08,15,12,20,15.90
2006,08,15,12,21,16.00
2006,08,15,12,22,16.10
2006,08,15,12,23,16.20
2006,08,15,12,24,16.20
2006,08,15,12,25,16.30
2006,08,15,12,26,16.30
2006,08,15,12,27,16.40
2006,08,15,12,28,16.40
2006,08,15,12,29,16.40
2006,08,15,12,30,16.40
2006,08,15,12,31,16.40
2006,08,15,12,32,16.30
2006,08,15,12,33,16.30
2006,08,15,12,34,16.20
2006,08,15,12,35,16.20
2006,08,15,12,36,16.20
2006,08,15,12,37,16.10
2006,08,15,12,38,16.10
2006,08,15,12,39,16.10
2006,08,15,12,40,16.10
2006,08,15,12,41,16.10
2006,08,15,12,42,16.10
2006,08,15,12,43,16.10
2006,08,15,12,44,16.10
2006,08,15,12,45,16.10
2006,08,15,12,46,16.10
2006,08,15,12,47,16.10
2006,08,15,12,48,16.10
2006,08,15,12,49,16.10
2006,08,15,12,50,16.10
2006,08,15,12,51,16.10
2006,08,15,12,52,16.00
2006,08,15,12,53,15.90
2006,08,15,12,54,15.90
2006,08,15,12,55,15.80
2006,08,15,12,56,15.80
2006,08,15,12,57,15.80
2006,08,15,12,58,15.80
2006,08,15,12,59,15.80
2006,08,15,13,00,15.80
2006,08,15,13,01,15.80
2006,08,15,13,02,15.80
2006,08,15,13,03,15.80
2006,08,15,13,04,15.80
2006,08,15,13,05,15.80
2006,08,15,13,06,15.70
2006,08,15,13,07,15.70
2006,08,15,13,08,15.70
2006,08,15,13,09,15.80
2006,08,15,13,10,15.80
2006,08,15,13,11,15.80
2006,08,15,13,12,15.90
2006,08,15,13,13,16.10
2006,08,15,13,14,16.20
2006,08,15,13,15,16.10
2006,08,15,13,16,16.10
2006,08,15,13,17,16.10
2006,08,15,13,18,16.10
2006,08,15,13,19,16.10
2006,08,15,13,20,16.10
2006,08,15,13,21,16.20
2006,08,15,13,22,16.30
2006,08,15,13,23,16.30
2006,08,15,13,24,16.30
2006,08,15,13,25,16.40
2006,08,15,13,26,16.40
2006,08,15,13,27,16.40
2006,08,15,13,28,16.50
2006,08,15,13,29,16.60
2006,08,15,13,30,16.70
2006,08,15,13,31,16.90
2006,08,15,13,32,16.90
2006,08,15,13,33,17.00
2006,08,15,13,34,16.90
2006,08,15,13,35,17.00
2006,08,15,13,36,17.00
2006,08,15,13,37,17.00
2006,08,15,13,38,17.00
2006,08,15,13,39,17.00
2006,08,15,13,40,17.10
2006,08,15,13,41,17.20
2006,08,15,13,42,17.10
2006,08,15,13,43,17.00
2006,08,15,13,44,16.90
2006,08,15,13,45,16.90
2006,08,15,13,46,16.90
2006,08,15,13,47,16.80
2006,08,15,13,48,16.80
2006,08,15,13,49,16.70
2006,08,15,13,50,16.70
2006,08,15,13,51,16.70
2006,08,15,13,52,16.60
2006,08,15,13,53,16.40
2006,08,15,13,54,16.40
2006,08,15,13,55,16.50
2006,08,15,13,56,16.60
2006,08,15,13,57,16.70
2006,08,15,13,58,16.90
2006,08,15,13,59,17.00
2006,08,15,14,00,17.20
2006,08,15,14,01,17.30
2006,08,15,14,02,17.30
2006,08,15,14,03,17.20
2006,08,15,14,04,17.10
2006,08,15,14,05,17.10
2006,08,15,14,06,17.10
2006,08,15,14,07,17.10
2006,08,15,14,08,17.10
2006,08,15,14,09,17.20
2006,08,15,14,10,17.20
2006,08,15,14,11,17.20
2006,08,15,14,12,17.40
2006,08,15,14,13,17.50
2006,08,15,14,14,17.50
2006,08,15,14,15,17.60
2006,08,15,14,16,17.70
2006,08,15,14,17,17.70
2006,08,15,14,18,17.90
2006,08,15,14,19,18.00
2006,08,15,14,20,18.10
2006,08,15,14,21,18.00
2006,08,15,14,22,17.90
2006,08,15,14,23,17.90
2006,08,15,14,24,17.90
2006,08,15,14,25,17.90
2006,08,15,14,26,17.90
2006,08,15,14,27,17.90
2006,08,15,14,28,17.90
2006,08,15,14,29,18.00
2006,08,15,14,30,18.10
2006,08,15,14,31,18.20
2006,08,15,14,32,18.40
2006,08,15,14,33,18.50
2006,08,15,14,34,18.50
2006,08,15,14,35,18.50
2006,08,15,14,36,18.50
2006,08,15,14,37,18.50
2006,08,15,14,38,18.60
2006,08,15,14,39,18.50
2006,08,15,14,40,18.50
2006,08,15,14,41,18.50
2006,08,15,14,42,18.60
2006,08,15,14,43,18.70
2006,08,15,14,44,18.60
2006,08,15,14,45,18.60
2006,08,15,14,46,18.60
2006,08,15,14,47,18.40
2006,08,15,14,48,18.30
2006,08,15,14,49,18.30
2006,08,15,14,50,18.20
2006,08,15,14,51,18.20
2006,08,15,14,52,18.20
2006,08,15,14,53,18.20
2006,08,15,14,54,18.20
2006,08,15,14,55,18.20
2006,08,15,14,56,18.30
2006,08,15,14,57,18.50
2006,08,15,14,58,18.50
2006,08,15,14,59,18.50
2006,08,15,15,00,18.50
2006,08,15,15,01,18.50
2006,08,15,15,02,18.50
2006,08,15,15,03,18.40
2006,08,15,15,04,18.20
2006,08,15,15,05,18.20
2006,08,15,15,06,18.20
2006,08,15,15,07,18.30
2006,08,15,15,08,18.30
2006,08,15,15,09,18.30
2006,08,15,15,10,18.30
2006,08,15,15,11,18.40
2006,08,15,15,12,18.40
2006,08,15,15,13,18.50
2006,08,15,15,14,18.60
2006,08,15,15,15,18.70
2006,08,15,15,16,18.80
2006,08,15,15,17,18.90
2006,08,15,15,18,19.00
2006,08,15,15,19,19.10
2006,08,15,15,20,19.10
2006,08,15,15,21,19.10
2006,08,15,15,22,19.20
2006,08,15,15,23,19.20
2006,08,15,15,24,19.20
2006,08,15,15,25,19.30
2006,08,15,15,26,19.30
2006,08,15,15,27,19.30
2006,08,15,15,28,19.10
2006,08,15,15,29,19.00
2006,08,15,15,30,18.90
2006,08,15,15,31,18.90
2006,08,15,15,32,18.90
2006,08,15,15,33,18.90
2006,08,15,15,34,18.90
2006,08,15,15,35,18.90
2006,08,15,15,36,18.90
2006,08,15,15,37,18.80
2006,08,15,15,38,18.80
2006,08,15,15,39,18.70
2006,08,15,15,40,18.70
2006,08,15,15,41,18.60
2006,08,15,15,42,18.50
2006,08,15,15,43,18.40
2006,08,15,15,44,18.20
2006,08,15,15,45,18.20
2006,08,15,15,46,18.10
2006,08,15,15,47,18.10
2006,08,15,15,48,18.00
2006,08,15,15,49,17.90
2006,08,15,15,50,17.80
2006,08,15,15,51,17.60
2006,08,15,15,52,17.40
2006,08,15,15,53,17.20
2006,08,15,15,54,17.00
2006,08,15,15,55,16.90
2006,08,15,15,56,16.80
2006,08,15,15,57,16.70
2006,08,15,15,58,16.70
2006,08,15,15,59,16.70
2006,08,15,16,00,16.60
2006,08,15,16,01,16.60
2006,08,15,16,02,16.50
2006,08,15,16,03,16.40
2006,08,15,16,04,16.30
2006,08,15,16,05,16.30
2006,08,15,16,06,16.30
2006,08,15,16,07,16.20
2006,08,15,16,08,16.30
2006,08,15,16,09,16.30
2006,08,15,16,10,16.30
2006,08,15,16,11,16.30
2006,08,15,16,12,16.40
2006,08,15,16,13,16.40
2006,08,15,16,14,16.40
2006,08,15,16,15,16.40
2006,08,15,16,16,16.40
2006,08,15,16,17,16.40
2006,08,15,16,18,16.40
2006,08,15,16,19,16.50
2006,08,15,16,20,16.60
2006,08,15,16,21,16.60
2006,08,15,16,22,16.60
2006,08,15,16,23,16.60
2006,08,15,16,24,16.60
2006,08,15,16,25,16.60
2006,08,15,16,26,16.60
2006,08,15,16,27,16.60
2006,08,15,16,28,16.60
2006,08,15,16,29,16.60
2006,08,15,16,30,16.60
2006,08,15,16,31,16.60
2006,08,15,16,32,16.40
2006,08,15,16,33,16.40
2006,08,15,16,34,16.50
2006,08,15,16,35,16.60
2006,08,15,16,36,16.70
2006,08,15,16,37,16.70
2006,08,15,16,38,16.70
2006,08,15,16,39,16.60
2006,08,15,16,40,16.60
2006,08,15,16,41,16.60
2006,08,15,16,42,16.60
2006,08,15,16,43,16.60
2006,08,15,16,44,16.60
2006,08,15,16,45,16.70
2006,08,15,16,46,16.70
2006,08,15,16,47,16.60
2006,08,15,16,48,16.60
2006,08,15,16,49,16.60
2006,08,15,16,50,16.70
2006,08,15,16,51,16.80
2006,08,15,16,52,16.90
2006,08,15,16,53,17.00
2006,08,15,16,54,17.10
2006,08,15,16,55,17.20
2006,08,15,16,56,17.30
2006,08,15,16,57,17.40
2006,08,15,16,58,17.50
2006,08,15,16,59,17.60
2006,08,15,17,00,17.70
2006,08,15,17,01,17.80
2006,08,15,17,02,17.90
2006,08,15,17,03,17.90
2006,08,15,17,04,18.00
2006,08,15,17,05,18.10
2006,08,15,17,06,18.20
2006,08,15,17,07,18.30
2006,08,15,17,08,18.30
2006,08,15,17,09,18.30
2006,08,15,17,10,18.20
2006,08,15,17,11,18.20
2006,08,15,17,12,18.20
2006,08,15,17,13,18.20
2006,08,15,17,14,18.30
2006,08,15,17,15,18.30
2006,08,15,17,16,18.30
2006,08,15,17,17,18.20
2006,08,15,17,18,18.20
2006,08,15,17,19,18.20